Regional Weather Roundup
Issued by NWS

Home | Current Version | Previous Version | Graphics & Text | Print | Product List | Glossary On
Versions: 1 2 3 4 5 6 7 8 9 10 11 12 13 14 15 16 17 18 19 20 21 22 23 24 25 26 27 28 29 30 31 32 33 34 35 36 37 38 39 40 41 42 43 44 45 46 47 48 49 50
000
ASUS43 KLMK 280802
RWRKY
KENTUCKY REGIONAL WEATHER ROUNDUP
NATIONAL WEATHER SERVICE LOUISVILLE KY
300 AM EST SAT FEB 28 2015

NOTE "FAIR" INDICATES FEW OR NO CLOUDS BELOW 12,000 FEET
WITH NO SIGNIFICANT WEATHER AND/OR OBSTRUCTIONS TO VISIBILITY.

KYZ001>023-026-027-061>063-070>075-280900-
WESTERN AND SOUTH CENTRAL KENTUCKY

CITY           SKY/WX    TMP DP  RH WIND       PRES   REMARKS
PADUCAH        CLOUDY    21  11  65 E10       30.60S WCI  10
HENDERSON      PTCLDY    19   7  58 NE8       30.64S WCI   9
OWENSBORO      MOCLDY    19  10  68 NE7       30.64S WCI  10
HOPKINSVILLE   CLOUDY    22  13  69 NE8       30.58S WCI  12
BOWLING GREEN  CLOUDY    23   9  55 NE9       30.60R WCI  13
GLASGOW        NOT AVBL
$$

KYZ024-025-028>034-038-045-046-053-280900-
NORTH CENTRAL KENTUCKY

CITY           SKY/WX    TMP DP  RH WIND       PRES   REMARKS
LOUISVILLE/SDF CLOUDY    19   5  54 E9        30.65S WCI   8
LOUISVILLE/LOU PTCLDY    18   3  52 E7        30.65S WCI   9
FORT KNOX      CLOUDY    19   5  53 NE10      30.59F WCI   7
$$

KYZ035>037-039>044-047>052-055>060-089>105-280900-
NORTHEAST KENTUCKY

CITY           SKY/WX    TMP DP  RH WIND       PRES   REMARKS
LEXINGTON      MOCLDY    17   4  56 E12       30.63R WCI   4
COVINGTON      PTCLDY    12   1  61 E7        30.65  WCI   1
FRANKFORT        N/A     16   3  56 E7        30.64R WCI   6
$$

KYZ054-064>069-076>088-106>120-280900-
SOUTHEAST KENTUCKY

CITY           SKY/WX    TMP DP  RH WIND       PRES   REMARKS
JACKSON        CLOUDY    18   6  59 VRB6      30.57F WCI  10
LONDON         CLOUDY    20   6  55 NE6       30.57S WCI  12
SOMERSET       NOT AVBL
MIDDLESBORO    CLOUDY    23  12  62 CALM      30.56S
MONTICELLO     PTSUNNY   20   9  62 NE7       30.61S WCI  11
$$



USA.gov is the U.S. government's official web portal to all federal, state and local government web resources and services.